Location: Saluda
(35.2377°N, 82.3468°W)
Time: 17:58:16
(UTC+00:00)

Transit 2A - Pass Details

Date: 12 October 2022
Orbit: 598 x 959 km, 66.7° (Epoch: 06 December)

Event Time Altitude Azimuth Distance (km) Brightness Sun altitude
Rises 02:06:08 0° 215° (SW) 2,935 - -38.4°
Reaches altitude 10° 02:08:29 10° 219° (SW) 1,992 - -38.9°
Maximum altitude 02:12:51 58° 298° (WNW) 709 - -39.7°
Drops below altitude 10° 02:17:06 10° 18° (NNE) 1,939 - -40.5°
Sets 02:19:22 0° 23° (NNE) 2,848 - -40.9°
